Date,TemperatureHighF,TemperatureAvgF,TemperatureLowF,DewpointHighF,DewpointAvgF,DewpointLowF,HumidityHigh,HumidityAvg,HumidityLow,PressureMaxIn,PressureMinIn,WindSpeedMaxMPH,WindSpeedAvgMPH,GustSpeedMaxMPH,PrecipitationSumIn
2013-1-1,47.8,44.5,41.0,44.3,34.8,23.8,97,70,46,29.09,29.09,10,1,10,0.20
2013-1-2,50.0,43.6,38.7,44.8,34.5,24.9,98,73,39,29.09,29.09,8,1,8,0.12
2013-1-3,43.9,37.5,27.7,30.9,26.5,22.5,81,65,52,29.09,29.09,5,0,5,0.00
2013-1-4,50.0,34.5,22.6,28.5,17.7,11.3,83,55,27,29.09,29.09,10,2,10,0.00
2013-1-5,51.1,37.1,24.1,32.8,20.5,16.4,76,54,28,29.09,29.09,6,0,6,0.00
2013-1-6,56.3,43.9,37.6,35.2,31.7,26.2,82,64,36,29.09,29.09,10,0,10,0.00
2013-1-7,52.5,42.8,30.2,24.1,21.8,20.4,68,45,31,0.00,0.00,8,1,8,0.00
2013-1-8,54.1,38.5,25.3,36.3,27.7,19.6,83,67,42,0.00,0.00,7,0,7,0.00
2013-1-9,64.9,51.9,36.7,46.2,41.2,31.0,85,68,48,0.00,0.00,10,1,10,0.00
2013-1-10,60.8,49.9,42.4,42.0,33.4,24.2,87,58,26,0.00,0.00,9,0,9,0.00
2013-1-11,46.4,43.6,41.2,45.3,40.6,32.4,98,90,58,0.00,0.00,6,0,6,0.08
2013-1-12,64.4,54.2,45.9,60.1,51.9,45.3,98,92,78,0.00,0.00,6,0,6,0.00
2013-1-13,72.9,59.8,48.7,63.7,53.6,48.2,98,82,53,0.00,0.00,15,1,15,0.00
2013-1-14,62.4,57.9,50.2,61.8,56.7,48.7,98,96,85,0.00,0.00,10,0,10,1.57
2013-1-15,49.8,43.6,40.5,48.7,43.0,39.9,98,97,93,0.00,0.00,8,1,8,1.14
2013-1-16,48.6,43.9,39.6,48.0,43.3,39.0,98,98,98,0.00,0.00,8,0,8,0.55
2013-1-17,48.7,42.1,33.8,48.2,41.4,33.1,98,97,86,0.00,0.00,13,2,13,1.69
2013-1-18,44.8,35.2,28.8,36.4,27.9,19.1,98,78,38,0.00,0.00,6,0,6,0.39
2013-1-19,51.6,36.5,25.7,34.2,24.7,21.5,91,66,31,0.00,0.00,10,1,10,0.00
2013-1-20,59.9,39.3,30.4,32.3,26.1,19.1,84,62,27,0.00,0.00,13,1,13,0.08
2013-1-21,58.3,41.3,27.5,33.8,21.2,8.7,84,50,25,0.00,0.00,13,2,13,0.00
2013-1-22,38.3,31.6,24.3,8.7,-0.1,-6.0,31,25,21,0.00,0.00,12,3,12,0.00
2013-1-23,40.5,29.7,22.3,13.0,3.5,-6.0,52,33,26,0.00,0.00,13,2,13,0.08
2013-1-24,35.8,30.6,22.8,18.4,6.8,-1.6,62,37,27,0.00,0.00,16,2,16,0.08
2013-1-25,27.0,23.9,20.3,21.0,10.6,-1.5,79,58,34,0.00,0.00,10,1,10,0.08
2013-1-26,39.2,30.0,21.4,29.8,20.4,15.7,89,69,48,0.00,0.00,6,0,6,0.08
2013-1-27,42.6,33.3,25.5,24.9,18.7,13.4,69,55,41,0.00,0.00,9,1,9,0.08
2013-1-28,51.6,42.2,34.0,38.3,32.2,24.3,89,69,41,0.00,0.00,12,2,12,0.08
2013-1-29,70.3,53.7,42.1,51.5,44.0,37.5,98,74,33,0.00,0.00,13,1,13,0.00
2013-1-30,71.1,65.3,55.6,63.9,57.5,50.2,97,77,50,0.00,0.00,23,5,23,0.83
2013-1-31,55.6,43.4,32.0,52.4,23.6,11.6,91,48,28,0.00,0.00,17,4,17,0.20